GFSNIL_sfc_rhum_015.txt.gz
RH
70 74 78 81 84 84 78 81 83 86 84 87 86 88 90 93 94 95 96 94 84 71
68 69 75 78 81 83 80 78 91 93 94 90 88 92 95 94 90 86 82 81 79 79
61 70 74 75 78 81 80 88 93 90 89 90 91 93 92 84 77 79 81 75 79 80
72 69 72 73 79 82 87 87 88 77 76 87 85 81 78 79 75 74 76 73 74 73
73 67 69 72 72 75 72 70 66 72 76 76 75 75 73 75 70 72 71 71 73 70
68 66 66 71 70 68 67 63 63 69 73 70 72 71 72 72 72 72 73 74 75 74
70 63 71 69 73 72 67 66 66 67 69 73 68 64 65 65 72 79 77 80 80 80
78 76 80 88 87 82 76 72 70 69 67 68 62 53 74 79 81 80 81 80 76 75
91 92 94 94 91 85 84 71 62 62 66 68 55 69 71 75 85 83 80 80 76 77
91 94 94 90 89 84 70 63 63 64 68 72 73 68 70 75 82 88 86 88 88 82
92 92 84 70 64 62 63 64 65 67 72 79 73 70 71 73 86 90 88 88 88 86
60 58 62 64 68 68 67 65 68 73 82 83 83 74 72 75 92 92 90 86 86 87
61 62 66 69 67 64 67 69 82 80 83 79 86 79 76 78 92 96 92 88 80 76
63 65 67 66 66 70 78 85 93 92 89 87 85 91 81 76 87 95 93 89 86 89

GFSNIL_sfc_rhum_018.txt.gz
RH
71 66 65 70 80 91 88 92 93 93 94 94 95 96 95 96 97 97 98 96 96 96
69 68 65 72 83 88 90 87 95 94 95 94 92 90 92 95 94 94 94 93 94 91
66 70 75 81 82 87 89 94 94 92 89 89 86 90 93 95 92 91 88 83 83 80
66 70 75 76 81 87 91 93 92 84 79 79 78 88 93 88 81 78 76 74 76 76
74 76 73 77 79 82 78 74 71 73 73 76 80 79 78 77 75 75 73 72 74 74
74 73 71 75 74 72 72 73 77 74 72 71 74 73 71 69 71 72 74 77 80 79
86 77 78 89 90 87 83 84 82 75 74 72 66 62 63 63 72 78 78 79 79 79
90 91 91 91 90 87 86 79 75 66 66 67 62 52 75 77 79 78 77 79 76 74
91 87 94 92 92 91 90 86 66 64 68 71 57 71 71 77 86 83 83 83 78 75
92 92 94 92 92 92 74 66 66 66 69 71 74 69 66 68 77 86 88 90 86 80
77 82 75 66 64 66 67 66 66 69 74 80 69 67 69 71 83 88 88 87 85 87
68 64 65 67 70 66 66 68 70 74 80 80 78 72 72 77 93 93 92 85 87 88
67 68 72 71 70 68 72 71 82 77 79 78 85 78 79 78 91 96 93 78 76 77
73 72 72 73 73 77 82 85 92 93 91 87 85 92 80 74 87 94 94 91 85 87

GFSNIL_sfc_rhum_024.txt.gz
RH
41 39 41 42 44 43 43 44 51 55 57 57 58 62 68 73 90 90 95 96 96 96
44 49 49 48 48 43 48 45 55 60 58 62 69 66 66 77 77 80 80 77 78 76
49 49 49 49 48 50 52 56 61 68 66 71 78 80 79 78 78 73 71 68 72 70
52 51 47 45 48 53 59 65 66 75 84 88 89 84 77 73 66 62 59 55 52 48
51 50 47 50 51 55 59 72 84 91 84 68 60 64 64 55 49 47 45 44 43 41
49 50 52 57 62 67 68 69 67 61 56 51 49 45 43 41 43 44 43 42 42 42
56 60 66 64 65 62 55 54 54 57 63 65 52 44 41 41 44 44 42 46 46 45
63 76 83 86 71 65 56 53 53 54 46 44 42 33 49 45 45 43 42 44 42 45
61 60 62 61 56 47 43 40 41 42 44 45 34 67 65 62 46 43 43 46 44 43
46 46 45 40 38 42 44 42 43 43 44 46 46 62 64 66 50 50 50 49 46 40
45 42 41 42 44 44 42 44 44 45 46 47 41 62 64 69 58 56 52 50 47 50
46 44 43 45 45 43 44 44 44 45 48 49 52 65 68 72 67 64 62 58 60 62
44 45 46 43 45 44 42 43 50 55 56 61 63 66 70 68 73 86 75 69 63 70
43 43 41 43 42 42 45 55 83 96 77 71 70 74 70 66 81 84 79 72 68 66

GFSNIL_sfc_rhum_027.txt.gz
RH
40 38 41 44 45 44 41 40 44 47 58 68 77 77 80 87 81 81 94 92 90 88
44 45 46 47 47 43 45 41 52 71 79 82 78 78 85 88 89 88 75 82 88 86
41 40 43 45 45 45 48 62 65 76 77 76 79 79 75 84 81 86 89 87 84 76
37 39 41 41 43 48 56 59 62 65 73 72 65 60 62 63 60 61 59 57 59 55
38 38 40 47 56 56 55 57 59 65 64 57 54 47 47 50 45 45 46 49 48 39
38 46 53 56 58 53 57 60 61 62 64 54 46 45 45 42 41 40 39 39 39 38
47 57 59 70 82 74 64 62 61 55 46 42 35 34 35 34 42 42 38 41 41 41
54 55 61 65 63 56 54 40 37 37 36 36 34 30 44 44 47 44 42 42 37 40
48 46 48 49 48 44 43 42 37 36 37 38 29 71 65 60 50 46 45 45 42 40
44 45 46 42 42 42 43 37 38 38 38 40 40 61 62 67 52 52 50 49 48 42
46 47 43 39 38 38 37 39 40 41 40 42 38 69 68 69 58 56 54 54 51 49
44 39 37 37 38 37 38 40 39 40 51 54 57 70 72 67 67 65 62 54 60 62
37 37 36 36 38 38 37 37 44 57 55 64 65 71 67 67 75 84 74 64 58 66
36 35 34 36 36 36 38 47 80 98 74 66 72 77 66 68 82 74 83 74 75 71

GFSNIL_sfc_rhum_030.txt.gz
RH
62 61 60 62 66 66 63 62 79 79 82 84 82 84 85 91 91 91 93 90 89 93
59 60 62 62 64 64 63 58 76 82 83 84 84 84 87 92 90 91 93 95 93 93
48 52 57 62 62 68 69 69 71 76 78 80 81 82 80 76 75 84 91 92 89 85
50 52 56 61 66 66 69 68 70 67 73 72 72 73 77 78 76 81 80 74 71 70
51 53 58 61 64 69 66 62 69 72 74 74 65 62 63 63 60 60 62 58 58 56
51 58 69 70 74 77 79 74 75 70 68 65 63 55 53 50 53 56 56 53 54 53
62 62 68 70 75 78 78 74 68 62 54 54 46 41 46 48 59 62 55 57 56 54
57 58 60 65 66 62 61 55 54 52 52 53 45 44 63 60 62 64 60 58 52 53
52 56 61 63 63 60 58 56 53 52 53 55 36 72 68 69 70 63 62 62 58 57
48 54 59 52 50 54 59 54 56 56 55 59 60 70 69 71 70 70 68 67 65 60
47 48 53 53 50 54 54 58 58 60 65 66 54 74 74 73 75 74 73 71 65 66
43 48 49 49 55 53 56 58 58 60 69 70 73 72 74 78 83 81 78 68 71 71
47 46 51 53 53 54 55 52 78 77 76 76 79 77 77 75 92 92 83 76 72 71
48 50 50 50 51 51 58 72 95 98 95 85 80 85 70 81 94 93 87 82 79 77

GFSNIL_sfc_rhum_033.txt.gz
RH
67 72 72 73 72 72 75 91 90 89 90 90 90 92 93 95 96 95 96 96 94 95
57 60 63 68 76 84 81 68 86 88 89 88 89 90 92 96 94 92 95 96 95 96
56 58 70 76 76 75 75 74 76 83 85 81 83 86 91 92 87 90 96 95 96 95
59 64 69 70 74 77 79 75 77 80 75 78 83 81 83 84 84 85 85 82 77 75
57 69 77 79 83 85 88 86 82 78 78 76 80 78 76 74 68 68 67 66 68 65
63 68 76 80 80 83 86 90 87 83 82 77 74 65 61 65 68 69 67 65 66 67
70 66 72 77 80 83 83 86 85 67 64 63 58 59 62 61 70 72 68 71 70 68
68 67 68 69 71 69 68 64 64 60 61 63 59 56 72 71 76 76 76 75 65 64
66 66 72 70 68 68 64 61 57 58 64 72 51 76 72 76 81 77 75 76 74 74
60 63 66 63 64 61 65 59 60 61 72 73 76 75 71 74 81 80 80 81 80 65
66 61 63 72 63 59 57 59 60 73 75 74 61 74 75 80 85 86 83 82 79 76
70 71 77 68 64 54 55 63 70 78 81 83 83 79 82 82 94 94 92 82 82 76
79 80 92 84 67 56 60 78 84 84 90 85 90 81 76 84 99 99 91 89 77 76
82 76 78 61 54 57 76 91 98 98 93 88 87 88 69 80 95 92 93 87 83 79

GFSNIL_sfc_rhum_036.txt.gz
RH
64 70 71 75 78 82 87 91 91 89 88 88 86 87 91 95 96 96 96 95 97 97
58 63 76 78 79 82 81 77 88 88 90 90 91 89 92 95 95 95 95 95 96 97
60 72 76 78 78 80 82 81 84 86 89 88 82 84 90 92 90 93 93 94 97 96
62 71 76 80 84 86 86 87 87 87 86 82 84 82 83 82 82 82 77 73 73 71
60 75 80 84 84 84 80 84 87 87 85 80 80 81 77 74 72 72 73 72 70 67
60 76 79 84 84 82 83 85 87 86 82 72 71 68 70 72 73 72 73 74 73 70
62 76 77 82 84 84 86 86 84 73 67 67 67 64 65 67 75 76 73 77 77 77
64 75 73 80 78 81 74 68 68 61 67 69 64 59 77 74 76 78 79 78 75 74
63 70 76 78 82 73 69 75 59 64 70 69 55 76 72 76 84 77 77 80 76 79
64 72 75 75 83 89 96 68 59 70 74 77 78 75 71 78 85 85 86 86 82 76
74 74 78 88 89 88 85 72 63 79 77 77 68 76 78 82 92 94 92 91 89 87
82 84 91 91 96 94 91 67 81 80 83 85 87 81 78 88 96 93 92 83 84 76
83 90 93 96 95 89 68 82 83 83 88 81 89 71 71 75 99 99 89 87 78 74
90 93 84 87 71 76 87 90 94 96 90 88 83 84 68 67 91 90 88 85 81 81

GFSNIL_sfc_rhum_039.txt.gz
RH
63 68 73 78 84 86 88 89 89 91 92 90 89 90 90 94 95 95 97 95 96 98
62 67 76 78 82 84 86 84 91 92 92 91 92 92 91 96 95 95 96 96 96 97
62 74 77 82 82 84 84 83 86 89 91 93 92 92 92 92 90 91 94 94 93 91
62 75 81 83 84 87 88 88 89 89 91 90 86 85 88 86 80 76 75 76 75 74
63 69 82 87 88 90 88 83 85 87 89 85 77 75 72 74 75 74 75 75 75 74
61 67 80 85 88 88 86 83 87 86 87 77 67 69 72 72 72 72 73 77 79 78
65 66 76 83 87 89 87 92 86 86 74 68 68 65 66 68 73 76 74 78 78 77
71 72 77 82 84 86 91 83 86 88 71 71 66 60 74 72 76 79 79 78 75 74
70 72 80 83 85 87 93 95 93 84 75 71 57 75 74 79 87 80 80 84 79 78
75 75 75 76 91 95 96 94 86 74 74 73 76 75 73 79 90 93 93 92 90 81
81 85 85 90 93 92 94 93 88 81 78 76 70 78 78 84 93 93 90 87 87 86
82 89 93 93 88 92 95 91 84 81 78 84 87 72 73 87 92 87 84 77 80 76
89 94 95 94 96 96 81 85 84 79 83 79 82 70 67 71 98 99 87 83 74 75
91 92 92 93 78 90 87 86 93 95 89 87 81 86 66 64 93 93 88 86 86 83

GFSNIL_sfc_rhum_042.txt.gz
RH
59 64 68 73 82 85 88 90 88 91 91 90 91 92 92 95 96 95 97 97 97 97
60 63 71 77 85 86 87 83 88 91 92 92 93 93 93 96 95 94 95 96 96 98
61 67 77 82 82 85 86 87 89 90 91 92 93 94 94 96 93 93 93 90 82 81
65 69 82 86 87 87 89 90 88 88 90 92 92 88 88 87 78 75 75 75 74 74
66 68 73 82 86 90 92 91 87 87 90 89 86 79 72 72 72 71 71 71 76 77
67 70 71 75 82 90 92 91 89 90 91 88 79 70 70 71 70 71 74 77 78 78
71 72 75 80 84 88 90 92 93 89 88 84 74 67 65 67 71 74 74 77 79 79
75 74 76 78 81 88 92 91 94 96 95 88 66 58 70 72 76 80 81 81 77 77
76 76 78 81 85 92 95 95 92 96 98 78 60 75 75 83 91 88 88 91 85 83
79 82 85 87 92 95 94 92 91 88 81 77 75 74 74 84 85 86 86 80 78 72
80 85 90 93 94 91 91 93 90 85 80 76 75 76 81 82 84 84 80 76 76 78
82 92 94 95 95 95 96 96 90 83 79 80 83 70 72 75 90 82 79 72 75 75
90 93 94 95 95 97 88 85 86 78 80 79 79 71 66 71 96 96 87 82 75 78
86 91 93 95 84 86 88 91 96 94 87 87 82 85 68 66 94 92 90 86 85 83

GFSNIL_sfc_rhum_045.txt.gz
RH
44 40 41 46 46 50 52 52 59 64 66 67 68 69 71 73 72 75 80 78 74 74
46 48 50 54 59 57 60 57 64 68 69 69 70 72 74 74 74 77 77 76 77 75
49 50 54 60 62 63 62 63 65 66 67 66 67 69 73 73 67 75 76 69 60 57
48 50 52 53 56 57 63 63 67 67 63 62 66 69 69 66 64 60 58 56 54 55
48 51 52 51 51 57 59 63 67 69 66 67 68 68 65 62 54 55 54 53 54 52
49 49 49 50 54 53 58 62 68 72 73 71 70 74 72 56 54 54 54 53 54 54
53 53 53 54 53 61 65 69 70 70 73 78 81 82 68 52 54 54 54 58 58 58
57 56 54 56 62 66 72 73 73 80 81 95 80 65 58 54 58 59 60 59 57 57
60 56 58 62 68 72 74 72 70 77 79 67 56 75 75 70 60 60 54 50 46 43
60 59 60 63 66 69 72 74 76 72 66 65 58 74 78 79 55 53 50 46 43 43
58 61 64 68 67 71 76 79 71 74 64 58 58 72 78 76 58 56 49 47 48 50
61 66 69 67 71 72 78 74 76 72 62 60 58 65 70 65 65 62 58 55 54 55
67 72 72 72 70 71 62 61 65 63 62 70 64 66 65 65 74 84 69 60 52 62
73 78 74 70 66 64 69 75 94 99 71 68 70 71 69 68 80 76 73 64 59 58

GFSNIL_sfc_rhum_048.txt.gz
RH
34 31 32 33 35 34 34 35 39 44 46 49 52 53 53 53 52 56 60 58 56 49
38 38 37 40 41 41 44 39 44 48 51 50 52 53 54 55 56 55 60 62 61 53
36 36 39 43 43 42 41 40 43 44 44 44 47 50 53 52 48 54 56 49 47 45
35 32 32 34 34 34 36 32 33 34 39 42 45 50 54 56 52 58 51 47 46 44
29 30 30 31 32 35 35 37 38 41 45 46 50 55 61 60 65 61 52 45 44 44
28 29 30 32 34 36 39 42 42 45 48 49 56 59 64 65 72 58 48 46 47 47
30 33 34 36 38 42 43 46 48 49 58 72 75 71 78 63 55 52 47 49 50 46
35 36 37 40 43 45 49 48 49 56 62 65 62 51 56 50 50 49 48 47 41 41
35 37 42 44 48 48 47 48 53 52 53 54 44 75 72 71 47 46 43 41 39 36
34 38 43 42 45 48 52 54 59 61 57 58 54 72 79 70 46 46 43 42 39 36
37 40 42 46 49 48 54 60 66 72 68 58 49 74 74 72 49 48 46 44 44 43
44 45 47 48 52 50 56 56 52 69 68 58 55 66 73 66 55 56 54 48 45 46
46 49 52 54 53 52 52 52 52 52 56 64 60 66 65 64 67 86 65 53 45 59
47 48 51 60 59 51 50 68 82 92 76 59 62 66 68 68 78 72 68 60 51 49

GFSNIL_sfc_rhum_051.txt.gz
RH
35 33 33 33 33 34 34 35 38 38 38 39 40 47 44 59 60 56 66 61 60 58
38 43 40 37 38 36 38 31 34 38 39 38 38 38 45 54 55 61 61 59 64 55
46 35 35 37 36 35 34 32 31 33 33 33 35 37 39 52 49 57 63 54 53 47
35 30 29 30 30 29 32 30 32 33 34 36 38 37 41 53 54 49 54 50 54 50
27 28 28 26 27 30 32 35 35 36 36 38 36 38 44 48 48 53 57 57 54 54
24 24 26 27 30 31 34 37 38 38 40 40 49 57 58 58 58 64 60 55 51 51
24 27 30 31 33 36 37 40 40 40 42 56 61 54 54 56 59 57 53 52 51 44
27 29 31 34 37 38 41 40 38 41 46 53 54 51 48 50 54 51 49 45 35 37
26 28 32 36 40 40 39 38 41 49 56 58 49 77 71 68 50 45 42 40 38 37
26 29 32 30 33 39 43 42 49 57 57 64 61 75 76 66 49 47 42 42 41 38
29 32 33 36 39 41 42 45 51 58 60 70 78 76 73 69 53 46 45 45 45 43
32 35 38 41 44 43 44 46 52 52 59 62 80 72 73 67 55 52 53 49 46 45
36 38 41 44 48 49 46 43 51 57 58 72 65 70 70 64 66 90 66 53 46 64
37 38 40 42 45 49 46 56 72 93 71 69 73 75 70 68 70 74 69 61 54 51

GFSNIL_sfc_rhum_054.txt.gz
RH
50 55 53 56 50 56 56 58 57 58 59 59 60 63 64 68 74 80 86 80 83 85
54 52 52 51 54 58 57 40 52 53 54 55 56 59 63 66 71 73 81 84 81 85
50 51 54 50 51 50 49 48 50 52 54 55 56 58 60 64 68 73 81 74 75 75
56 48 41 44 45 43 46 46 48 50 52 53 55 56 61 66 62 67 70 71 73 72
55 40 42 42 40 44 46 50 50 52 52 52 55 65 69 70 70 71 72 75 71 70
36 36 40 41 44 45 48 50 52 52 56 55 67 67 69 70 68 71 72 67 68 65
34 39 44 46 47 50 51 54 55 55 55 61 62 63 62 54 64 72 66 69 68 64
40 40 43 48 52 52 55 52 54 54 62 66 64 56 68 63 66 68 67 64 53 51
36 37 46 50 54 55 54 53 56 61 66 70 55 73 74 70 66 62 61 62 57 54
36 39 46 42 43 50 58 59 61 64 67 72 70 78 79 66 61 66 68 64 63 53
37 39 42 46 50 56 60 62 63 65 67 77 71 91 87 70 66 70 68 66 65 66
39 40 44 46 57 60 61 62 65 62 67 74 96 89 80 71 76 78 77 68 70 65
40 43 47 53 57 60 64 57 71 71 74 80 87 83 75 73 93 92 90 77 68 72
40 43 49 54 56 57 62 70 84 93 90 84 84 94 76 73 88 94 91 88 83 83

GFSNIL_sfc_rhum_057.txt.gz
RH
62 66 56 52 58 61 63 62 58 55 57 59 59 62 67 75 78 84 91 85 88 90
58 52 52 56 58 64 58 43 54 57 56 58 58 61 66 73 72 82 84 85 86 86
50 49 56 56 56 54 51 50 54 55 57 58 60 63 72 80 80 83 88 81 80 81
50 54 48 46 49 47 49 50 52 55 56 58 64 75 79 78 77 80 80 80 81 79
60 52 43 43 45 51 50 54 53 56 58 60 72 73 74 77 77 80 78 80 79 72
59 40 42 49 52 50 51 53 55 54 59 65 71 67 71 74 76 71 75 78 77 75
41 44 48 50 50 53 54 54 56 58 64 68 70 68 71 64 69 77 76 76 77 73
47 47 47 52 56 56 59 57 58 62 67 71 69 63 72 72 69 72 73 70 63 59
44 45 49 52 53 54 55 57 61 68 71 72 62 75 73 72 74 78 73 72 68 61
44 46 50 46 49 55 61 67 71 68 67 73 78 78 81 85 81 72 72 76 71 62
42 44 48 54 57 63 66 69 74 72 69 77 80 85 89 82 91 77 78 76 74 74
46 50 52 57 62 64 67 68 72 73 78 86 98 94 92 90 83 83 83 74 74 78
51 56 58 61 64 64 66 63 75 76 81 83 91 94 88 82 96 95 92 84 79 70
50 50 55 68 69 70 72 77 87 94 93 90 88 93 87 80 90 92 92 94 92 86

GFSNIL_sfc_rhum_060.txt.gz
RH
64 68 65 60 64 65 66 65 67 59 60 59 60 64 70 77 79 83 92 90 92 93
61 58 66 64 64 72 66 56 58 57 59 60 62 70 74 84 87 87 90 92 92 94
54 58 60 68 67 63 54 53 56 58 59 59 68 74 78 83 83 82 86 80 83 84
59 61 59 55 58 51 52 54 56 58 57 59 70 74 78 78 79 80 83 82 83 82
60 62 58 49 50 53 54 57 57 58 57 60 72 76 72 74 74 76 78 77 84 82
73 47 49 51 51 52 54 56 58 58 61 63 75 72 73 74 77 80 77 77 82 80
52 52 53 55 58 59 59 59 58 61 64 71 74 71 72 72 75 77 78 82 82 82
55 51 52 53 55 56 58 59 65 69 72 74 75 70 79 77 81 76 75 81 72 64
52 51 53 54 53 55 56 61 68 71 76 77 66 71 76 74 78 86 90 92 87 70
54 51 50 46 53 57 65 67 68 70 75 77 79 82 76 81 92 94 86 85 78 65
47 47 52 53 59 64 70 68 69 72 77 79 78 82 84 90 89 92 85 82 74 73
54 53 56 60 65 69 72 71 70 71 76 82 90 90 91 92 96 81 82 79 77 76
54 57 63 66 69 71 75 74 78 79 85 82 86 90 95 95 95 91 90 85 83 76
52 55 58 67 70 75 82 86 89 95 94 92 90 90 88 93 94 88 92 86 88 89

GFSNIL_sfc_rhum_063.txt.gz
RH
74 78 76 70 73 74 69 70 76 76 61 57 61 67 73 79 84 88 92 88 91 95
63 63 63 67 72 86 82 76 70 61 63 64 68 72 79 85 84 85 86 85 87 92
62 62 65 76 84 82 77 64 60 61 62 64 71 77 77 82 84 80 86 84 86 88
63 67 70 71 73 77 67 57 60 61 62 64 70 77 79 80 80 78 82 83 83 84
69 70 82 87 81 59 60 58 61 63 61 61 68 77 80 77 75 80 82 80 81 84
80 86 68 59 61 58 57 57 61 62 65 65 70 79 79 76 78 81 84 82 83 84
68 65 58 59 58 60 60 61 62 66 70 73 74 79 75 73 80 82 80 84 87 87
66 57 59 56 57 57 57 58 65 70 71 76 76 72 79 80 85 87 84 81 82 82
59 55 56 57 56 58 60 67 67 70 75 78 72 76 82 83 85 82 84 93 92 88
55 52 55 53 55 60 66 71 69 71 72 77 82 81 82 80 84 89 94 95 90 78
55 56 55 56 61 65 71 74 74 76 76 82 78 81 83 84 93 94 92 85 81 77
58 55 58 62 68 69 73 77 79 77 81 84 86 84 85 89 98 97 94 77 81 78
55 57 61 66 69 74 77 75 82 84 88 88 91 84 89 93 99 99 94 87 82 82
55 57 61 66 73 74 78 82 85 89 92 95 93 93 86 86 93 98 96 88 90 88

GFSNIL_sfc_rhum_066.txt.gz
RH
92 93 88 85 77 78 76 71 77 83 80 65 61 68 71 76 81 87 91 88 92 91
94 88 80 72 67 79 83 78 86 88 80 61 62 68 76 82 82 87 87 86 85 88
78 70 65 74 83 81 88 83 92 80 65 63 67 74 81 84 84 85 87 84 86 85
68 73 82 83 85 81 87 91 73 65 64 65 72 77 81 83 83 83 80 81 84 82
74 72 79 83 84 89 84 72 68 66 65 67 70 77 82 82 76 83 80 80 83 81
75 82 89 87 90 78 69 64 61 62 65 69 71 73 82 82 80 81 83 84 86 84
84 83 77 67 62 65 61 60 61 64 69 74 75 76 81 78 81 85 84 86 88 88
81 67 63 62 59 59 59 57 61 69 72 76 77 73 81 82 86 89 88 86 82 84
66 56 57 60 59 60 58 63 71 71 73 74 69 77 84 87 88 86 85 87 88 91
56 58 61 56 56 57 62 68 71 72 73 75 78 80 84 85 90 86 88 91 92 90
60 60 57 57 59 62 68 71 75 77 79 82 78 81 83 87 91 92 92 94 93 90
59 56 57 61 65 69 74 75 78 79 81 84 85 83 84 89 94 96 96 92 92 86
59 58 61 65 70 74 80 77 82 78 81 82 90 84 87 89 100 94 91 91 90 84
56 58 61 68 75 78 80 82 87 87 86 86 86 87 83 86 96 93 89 91 94 88

GFSNIL_sfc_rhum_069.txt.gz
RH
88 90 70 66 63 62 59 58 61 64 73 79 84 69 62 58 51 58 65 67 68 59
92 83 72 70 66 66 64 60 67 78 90 92 73 55 57 51 56 63 66 67 68 60
85 78 73 73 70 67 64 64 76 94 94 74 52 54 58 56 58 63 64 59 62 57
79 74 72 71 69 68 77 88 94 92 71 52 51 54 58 59 59 62 62 62 61 60
72 73 73 74 74 74 90 89 86 67 51 49 50 52 57 58 56 62 63 61 61 61
75 74 72 78 86 91 83 69 57 52 53 50 52 53 56 58 60 62 61 60 61 59
71 77 91 87 78 71 68 54 52 52 50 55 54 55 56 56 61 63 61 64 65 62
88 94 88 76 64 70 59 48 46 49 54 56 55 50 54 56 62 64 64 64 61 61
91 78 64 63 72 64 49 51 53 53 57 57 47 69 83 75 57 58 61 61 58 58
58 53 65 64 48 49 57 56 56 58 58 57 57 77 81 84 57 56 57 59 59 56
61 62 60 47 53 58 52 56 55 57 59 61 54 77 80 83 61 61 62 64 62 62
59 52 53 59 51 52 55 55 56 56 58 59 56 75 82 79 62 64 64 63 64 64
56 49 49 51 52 54 55 54 54 55 57 64 61 72 84 79 72 93 74 67 68 82
46 46 49 53 54 55 56 62 71 81 68 65 66 67 78 82 77 82 75 67 67 74

GFSNIL_sfc_rhum_072.txt.gz
RH
70 70 68 71 60 54 52 50 51 53 50 50 81 86 78 55 42 44 46 47 45 38
74 74 73 73 63 56 53 48 56 54 62 81 92 85 60 45 45 46 48 50 50 45
72 72 78 74 63 58 56 54 59 70 86 94 86 58 48 44 43 46 46 43 47 46
74 81 83 74 68 63 60 62 76 91 94 76 52 44 46 44 42 45 46 45 48 48
86 83 84 81 74 75 81 86 94 90 68 49 39 42 42 42 38 43 45 45 47 48
82 84 86 89 90 95 92 84 80 59 47 42 41 38 40 40 42 44 44 45 46 45
82 83 87 94 95 94 87 75 66 59 45 44 38 38 40 38 41 42 41 45 46 45
80 86 94 93 92 78 60 70 67 42 38 41 42 35 38 36 40 41 41 43 43 47
83 86 88 88 71 74 70 55 39 43 47 46 34 63 75 66 42 38 39 42 41 39
74 72 61 54 52 56 51 47 52 49 44 43 41 72 79 82 43 40 40 40 40 37
53 59 56 45 49 57 53 50 45 44 43 43 37 69 78 81 48 43 42 42 43 45
53 50 49 65 61 47 44 43 41 37 41 43 42 70 79 75 52 49 50 45 46 45
46 63 54 46 43 40 39 38 38 40 44 53 51 66 81 74 67 74 68 60 56 65
44 40 40 41 40 40 42 48 59 69 62 54 55 55 74 78 66 66 67 61 63 69

GFSNIL_sfc_rhum_075.txt.gz
RH
62 63 65 66 65 71 68 58 55 58 55 53 53 63 66 69 72 66 61 49 45 39
67 68 68 66 69 70 70 55 61 60 56 57 63 78 82 75 66 51 48 52 50 46
68 70 72 74 76 80 80 70 62 64 63 80 91 92 86 65 46 46 47 43 46 46
76 70 81 81 91 94 82 66 69 83 90 92 94 88 66 48 48 43 45 45 45 46
81 92 90 89 89 89 89 89 93 92 88 92 77 59 54 51 42 42 42 44 45 43
89 87 85 86 90 92 95 96 92 90 88 78 65 51 41 39 42 43 42 43 41 40
87 87 90 91 88 90 93 92 93 92 88 79 51 39 37 38 40 39 37 38 39 39
90 89 86 87 89 91 89 87 72 74 74 52 37 35 41 38 37 36 36 38 34 38
89 87 92 91 88 85 72 69 71 62 40 44 40 72 64 59 40 37 36 36 34 32
84 85 82 73 70 65 59 55 52 44 49 48 42 71 72 78 44 39 37 38 38 34
72 64 53 49 47 49 50 52 52 48 44 43 36 73 76 81 49 45 44 44 43 45
48 47 50 53 53 56 53 49 46 39 37 38 40 75 79 72 53 54 55 49 48 46
45 44 48 54 52 46 42 36 33 34 38 55 48 80 79 65 62 66 62 51 45 59
44 48 46 43 40 37 37 40 56 68 64 49 48 52 69 73 56 62 66 61 58 56

GFSNIL_sfc_rhum_078.txt.gz
RH
71 67 74 76 84 79 79 76 73 76 71 76 77 84 82 83 81 74 76 63 67 64
71 74 78 86 85 79 80 75 77 73 80 83 78 82 85 82 79 84 86 79 69 67
74 74 79 85 81 83 87 83 83 82 84 88 90 89 87 89 89 91 80 66 67 69
76 80 88 88 90 92 93 91 92 92 93 94 94 95 96 96 87 71 66 64 66 65
87 87 92 97 95 92 93 92 94 96 94 95 96 97 93 83 68 67 64 62 64 64
95 95 94 93 92 92 93 94 93 91 92 94 91 90 85 71 68 62 62 62 63 61
94 93 94 95 94 92 91 92 92 92 92 92 89 80 70 57 59 59 54 58 59 57
96 96 95 95 94 94 92 92 91 93 93 86 75 63 60 55 55 53 52 55 50 51
95 95 96 95 94 92 91 90 88 83 81 76 58 75 68 58 53 52 54 56 53 51
95 96 94 89 86 84 85 78 78 74 74 66 64 76 76 69 57 58 59 60 59 51
90 88 81 77 75 73 69 68 70 69 61 59 53 78 79 81 65 65 65 67 67 68
77 71 67 62 63 64 66 69 65 59 58 54 71 83 83 72 78 76 76 62 63 62
59 56 56 60 66 69 64 59 53 50 70 66 76 78 74 66 93 83 82 73 64 70
51 52 57 63 61 54 53 70 88 89 78 63 68 76 79 77 86 91 88 84 80 79

GFSNIL_sfc_rhum_081.txt.gz
RH
81 75 79 84 91 90 88 90 91 88 86 82 82 80 83 83 82 78 80 67 67 67
80 81 84 88 91 91 89 88 89 82 84 88 84 85 87 92 88 86 84 79 81 84
80 83 92 93 92 92 91 88 91 93 90 89 93 94 95 96 93 86 89 92 93 77
84 89 95 93 94 91 94 96 96 95 94 90 92 96 95 94 92 94 95 89 83 77
88 91 94 92 94 96 96 94 93 90 87 94 94 94 94 96 92 91 85 77 72 70
91 95 98 98 98 96 96 94 92 91 92 91 92 95 94 88 87 84 74 71 71 71
98 98 98 98 97 97 94 95 94 93 92 92 92 87 86 81 80 79 76 69 65 60
98 98 98 98 96 95 94 94 93 93 93 92 89 82 83 73 72 59 56 60 54 54
98 98 97 97 97 97 95 94 93 93 93 92 72 76 76 67 61 55 56 58 60 60
98 98 98 96 93 94 94 93 92 89 86 85 81 78 74 73 62 60 62 64 66 63
95 96 94 93 92 91 87 84 84 81 78 78 63 84 82 75 70 73 76 79 76 74
88 87 87 86 84 77 74 74 74 75 70 73 78 82 80 79 82 75 78 71 74 73
81 81 80 75 72 68 73 69 65 67 76 80 79 76 74 72 88 86 88 82 76 79
64 62 64 68 71 69 71 80 89 82 80 82 84 86 79 77 84 87 86 85 86 86

GFSNIL_sfc_rhum_084.txt.gz
RH
81 79 78 79 88 91 88 88 86 90 93 90 86 87 90 89 90 94 96 94 90 86
84 83 76 85 88 90 87 87 94 94 94 92 90 89 89 94 97 96 96 96 96 91
83 84 81 88 92 90 92 93 96 96 95 94 92 92 92 94 95 94 97 94 92 94
79 84 85 90 91 92 94 96 96 97 96 94 90 89 91 94 97 93 91 92 94 92
83 87 90 90 95 97 98 98 97 96 93 90 87 92 92 94 90 90 92 93 91 87
91 93 95 94 96 98 99 99 96 94 92 88 91 92 91 88 91 93 91 84 83 77
92 94 95 97 97 98 96 96 95 93 89 92 90 91 90 92 94 93 87 82 78 75
97 98 98 98 98 97 96 95 92 93 93 92 91 90 92 89 90 87 78 69 60 62
99 99 99 99 98 98 98 98 96 95 94 95 88 100 98 90 84 72 60 63 62 57
98 98 99 98 98 98 98 96 96 95 94 94 89 95 92 83 66 63 66 67 70 70
98 98 98 96 97 97 96 95 95 95 93 94 84 90 86 79 74 82 79 77 77 78
96 97 95 96 95 94 94 95 94 90 87 84 86 87 86 82 79 75 80 76 76 77
88 90 91 89 88 84 80 74 72 74 77 80 79 85 81 74 86 87 81 77 75 78
82 84 83 84 82 80 76 76 85 85 83 79 80 83 79 74 82 86 85 80 80 80

GFSNIL_sfc_rhum_087.txt.gz
RH
76 76 83 82 87 91 87 85 90 95 94 95 93 94 92 93 90 89 94 91 94 91
78 79 79 85 87 88 87 86 89 94 94 94 93 92 92 94 93 91 94 96 95 93
77 79 79 84 86 87 87 89 94 96 95 96 95 95 93 94 92 93 96 94 95 94
80 82 85 87 86 87 89 95 96 96 97 97 97 96 92 90 92 91 94 96 94 92
81 84 88 91 88 90 95 97 97 98 97 98 97 94 92 93 91 92 95 93 90 86
77 85 89 91 94 97 96 98 99 99 98 98 96 95 91 89 90 91 90 90 92 92
77 85 86 89 96 97 98 97 97 98 95 94 94 93 91 89 91 91 91 92 93 90
78 90 94 97 97 96 96 95 93 96 96 93 92 91 91 89 93 95 97 93 87 86
99 99 99 99 99 100 99 99 98 97 96 96 93 100 99 97 97 97 96 88 74 70
99 99 99 99 99 99 99 99 98 98 97 98 98 100 100 96 90 86 85 81 75 66
99 99 99 99 99 99 99 98 98 98 98 98 98 99 97 95 90 85 78 78 76 75
99 99 99 99 99 98 98 98 98 97 97 97 98 96 92 83 80 77 77 74 75 74
94 96 96 96 97 96 95 95 93 92 91 93 94 92 87 83 86 85 79 75 76 75
87 88 88 89 87 83 85 86 91 92 90 88 88 88 84 81 86 85 83 77 76 79

GFSNIL_sfc_rhum_090.txt.gz
RH
82 81 82 80 80 83 82 86 92 96 94 94 94 93 91 91 92 90 92 89 90 88
85 83 78 88 93 90 93 90 94 94 94 94 95 94 94 94 94 94 94 91 89 88
83 84 82 88 92 90 92 94 94 95 94 94 97 96 96 96 94 93 94 91 90 89
82 82 84 84 84 88 92 91 92 91 93 96 98 97 96 96 97 96 93 91 92 91
80 82 85 86 83 85 89 89 91 93 96 97 98 98 98 98 98 96 92 90 91 90
80 83 86 86 86 88 91 91 96 95 96 96 96 98 98 96 96 93 89 90 93 92
80 82 84 86 88 92 94 92 96 97 97 95 96 97 96 96 95 94 94 94 93 90
76 83 87 88 92 96 95 94 94 95 98 97 96 96 97 95 95 96 96 97 98 98
84 86 92 92 93 95 96 97 96 98 97 98 97 100 100 97 95 95 98 99 96 95
96 96 98 99 99 99 98 99 99 99 99 98 97 100 100 100 98 98 98 94 91 86
99 99 99 99 99 99 99 99 99 99 99 99 98 99 99 98 97 97 96 94 92 88
99 99 99 99 99 99 98 98 98 97 98 97 98 97 95 92 93 92 90 85 81 80
97 98 98 98 98 97 95 95 93 95 95 95 96 94 91 85 85 86 88 90 94 96
89 92 92 90 89 90 92 92 95 95 93 93 93 94 93 92 93 94 95 94 87 77

GFSNIL_sfc_rhum_093.txt.gz
RH
68 64 63 62 61 65 62 63 66 72 70 73 75 78 80 82 83 85 90 86 86 86
72 68 63 65 67 67 65 63 70 72 74 73 75 76 78 84 82 83 86 88 88 87
72 70 67 70 71 69 69 70 69 73 74 73 76 78 81 85 82 89 89 90 91 87
73 72 73 72 71 69 70 69 70 69 72 75 78 84 88 89 88 94 93 93 92 91
76 77 76 76 72 72 73 73 73 72 72 74 82 92 97 97 95 97 97 97 97 95
79 78 80 76 73 74 74 72 70 75 76 82 89 96 94 93 94 95 94 94 96 93
73 74 72 73 74 78 73 71 72 75 79 84 87 90 92 93 95 96 93 92 92 90
70 71 72 76 76 75 76 77 78 83 87 90 91 95 95 96 96 94 96 94 93 94
69 70 76 77 78 80 81 81 86 91 94 95 97 100 100 99 97 96 97 99 99 98
69 69 71 73 78 79 82 85 94 95 97 98 98 100 100 100 99 99 98 98 98 95
83 89 91 90 94 95 99 99 99 98 98 97 95 100 99 98 96 97 97 96 95 95
98 98 98 99 98 98 97 97 97 95 96 96 97 96 95 91 92 92 95 93 95 94
95 96 97 97 97 93 93 94 92 92 92 95 95 93 89 85 89 92 92 92 94 96
90 90 90 91 90 90 92 92 94 95 93 93 93 94 92 89 90 92 92 90 91 92

GFSNIL_sfc_rhum_096.txt.gz
RH
58 67 63 58 54 62 54 54 57 59 58 68 69 65 66 70 65 67 71 74 72 73
59 60 58 56 55 51 51 48 56 58 59 57 58 59 63 62 64 66 71 72 78 81
58 56 54 55 56 55 51 50 50 54 57 56 56 57 60 61 60 64 66 66 69 73
60 59 59 56 55 55 56 54 55 54 55 56 56 55 59 61 60 62 65 67 76 80
60 59 60 61 56 56 55 56 56 56 54 52 52 55 59 66 65 72 73 86 90 92
63 62 63 63 63 59 60 59 57 57 58 56 57 57 60 70 80 83 83 84 90 92
60 61 61 63 64 64 62 61 58 57 56 58 54 53 58 70 77 76 78 84 93 92
58 59 60 64 64 63 62 60 58 57 56 57 58 61 67 77 88 93 94 95 96 96
56 55 59 60 61 61 59 58 58 60 61 67 82 100 100 100 97 99 99 99 98 95
55 56 57 57 59 63 71 72 77 84 89 97 94 99 100 100 98 97 97 98 97 94
57 58 56 60 64 82 96 96 96 96 94 94 93 97 97 95 93 94 93 93 92 94
74 86 94 97 97 96 95 94 94 92 93 94 94 93 93 88 89 90 92 90 90 88
91 93 94 93 93 91 91 92 91 92 91 93 92 92 89 84 87 88 88 87 89 92
84 87 87 88 88 89 91 90 93 93 92 91 90 91 90 87 88 89 88 85 85 86

GFSNIL_sfc_rhum_099.txt.gz
RH
69 65 71 72 73 77 70 68 76 72 70 70 69 73 71 74 70 71 80 76 73 67
64 61 60 71 72 67 65 60 68 69 64 63 67 68 70 61 64 69 74 81 80 76
57 59 57 61 61 64 62 55 59 64 63 61 61 61 62 61 64 70 73 74 74 70
58 54 56 56 58 59 57 54 54 56 56 56 58 58 61 64 63 63 63 62 65 66
59 56 56 58 56 58 57 57 54 54 50 52 53 57 59 61 57 60 62 63 66 67
59 57 58 57 60 60 58 57 54 53 56 55 56 55 57 58 58 60 61 63 66 72
54 55 55 56 56 60 57 55 53 55 55 57 52 50 51 50 56 60 61 72 78 79
53 55 54 57 58 58 59 55 53 55 54 54 52 49 54 56 66 73 81 85 96 97
52 52 56 57 60 60 58 56 57 56 56 62 79 98 100 99 97 97 98 98 96 93
49 51 53 53 56 60 65 68 87 92 92 93 92 97 98 96 94 95 95 96 95 92
48 50 51 58 82 93 92 94 94 94 93 94 93 95 94 93 92 94 92 91 88 91
50 73 86 94 94 93 93 94 94 92 93 94 95 93 92 87 88 89 91 89 88 86
85 87 89 91 93 91 91 92 91 92 92 93 93 92 88 83 86 88 87 83 85 89
84 86 87 89 88 89 91 91 93 93 91 90 90 90 88 86 86 84 82 78 79 80

GFSNIL_sfc_rhum_102.txt.gz
RH
82 86 87 87 88 88 88 85 83 84 82 80 73 80 83 82 88 90 92 88 86 85
78 77 82 80 80 82 84 85 86 81 81 87 82 83 85 82 85 85 86 89 89 83
75 73 73 80 82 78 77 73 84 82 79 76 73 74 80 77 77 82 86 88 88 87
72 70 68 72 77 75 74 72 76 78 76 73 72 74 75 74 73 73 77 81 84 83
70 70 69 71 67 68 74 71 68 72 72 69 69 70 71 76 70 77 79 79 82 81
70 68 71 71 73 72 71 70 66 66 69 68 68 68 72 72 73 73 74 75 78 79
71 70 69 68 69 72 71 72 70 71 70 70 67 64 65 63 69 72 73 83 95 96
69 69 68 70 71 70 69 67 66 68 67 67 67 71 91 83 82 95 96 95 91 94
65 65 69 71 72 73 72 70 72 74 85 86 86 99 100 95 94 93 94 96 96 94
59 62 68 67 69 74 82 87 91 91 92 95 94 96 95 94 93 94 95 95 94 92
58 60 62 74 90 94 93 94 94 94 93 94 93 93 93 92 90 93 94 94 92 93
59 86 88 94 95 94 94 94 94 92 93 94 96 93 91 87 89 91 95 92 92 89
85 88 93 92 93 92 91 92 91 93 93 92 94 93 89 85 87 90 90 87 85 84
86 88 90 91 90 91 92 91 94 93 93 91 88 90 88 87 87 88 88 86 82 83

GFSNIL_sfc_rhum_105.txt.gz
RH
96 95 89 93 92 92 93 94 94 92 91 98 96 95 95 93 91 91 91 92 93 90
95 94 91 87 87 87 88 90 93 91 89 95 94 92 89 86 87 89 92 88 90 88
88 86 86 87 86 86 85 82 89 86 82 85 88 84 83 81 82 84 85 84 86 86
84 84 88 84 86 86 86 81 85 80 79 81 85 81 80 78 80 84 84 89 91 88
84 81 83 89 84 83 83 83 85 81 79 79 74 78 82 85 77 83 84 86 87 88
80 82 78 81 84 85 82 81 82 83 82 80 79 78 82 80 80 82 85 87 90 93
81 82 77 79 78 76 82 82 78 81 82 81 78 75 75 74 79 83 94 95 93 91
82 87 84 85 86 80 81 80 78 82 77 77 77 79 85 87 92 94 94 93 90 93
80 78 84 82 85 88 86 80 83 89 88 90 87 98 99 94 94 92 93 97 96 95
77 77 81 80 81 82 90 88 91 92 92 96 95 95 94 93 92 94 94 95 94 94
74 75 79 88 92 94 94 95 95 96 94 95 94 94 93 92 91 93 94 95 95 95
71 92 91 95 96 95 94 95 95 93 94 95 96 92 89 87 90 94 95 94 95 95
90 92 94 94 95 93 92 93 92 95 95 95 96 93 89 86 89 93 93 95 94 88
88 90 90 92 91 91 93 92 93 93 93 94 91 93 88 85 87 88 85 82 84 83

GFSNIL_sfc_rhum_108.txt.gz
RH
97 93 94 94 95 94 95 95 96 94 91 92 93 94 94 96 97 97 97 95 93 89
95 97 93 93 92 95 94 95 94 95 97 96 95 95 95 96 95 95 95 93 93 92
97 97 96 93 95 94 94 95 96 95 94 96 96 96 95 96 95 94 90 89 93 94
97 96 95 88 89 92 91 94 95 94 96 94 96 96 96 93 88 88 83 81 82 81
93 94 90 90 91 91 90 88 87 87 92 89 87 91 89 87 82 86 84 86 89 90
90 94 96 93 93 93 89 89 87 85 84 84 84 88 86 84 84 88 85 86 90 92
94 90 92 94 92 91 90 91 89 86 83 81 83 80 81 84 90 91 94 93 92 92
87 89 86 91 92 91 89 87 90 90 88 84 82 82 84 84 89 94 94 93 91 93
85 86 89 89 89 88 92 93 92 94 90 92 90 100 99 94 94 93 95 97 96 95
86 87 89 89 91 93 92 90 92 93 94 97 96 96 95 94 94 95 95 95 96 97
84 84 88 91 94 95 94 96 96 96 95 96 95 95 94 92 91 94 95 96 96 96
84 96 97 97 97 96 95 96 96 94 94 96 97 92 91 88 90 93 96 95 95 95
95 94 96 95 95 94 93 95 94 96 94 94 96 90 86 84 86 92 93 94 96 95
92 92 92 93 92 93 94 94 95 96 96 95 94 95 88 84 85 88 90 93 94 93

GFSNIL_sfc_rhum_111.txt.gz
RH
93 92 92 89 92 92 90 96 96 92 92 91 92 92 90 91 94 96 95 97 96 95
93 94 93 93 93 95 93 95 96 94 95 96 95 94 94 96 98 98 98 96 98 98
94 94 95 94 96 98 97 95 96 96 94 95 96 95 95 97 98 98 98 98 97 96
95 95 96 97 94 96 97 96 97 96 96 96 96 96 97 96 96 96 98 97 96 92
97 95 95 96 96 95 96 95 96 97 96 95 95 95 95 96 96 97 98 96 94 90
95 95 95 96 94 95 93 92 92 93 96 96 95 95 94 94 90 90 89 91 94 95
92 94 95 96 96 96 95 93 90 90 92 93 93 94 92 89 92 94 94 94 93 92
89 91 96 98 97 95 95 95 93 91 89 90 90 91 93 94 95 94 95 94 91 93
92 94 96 98 97 95 95 97 97 96 93 94 93 100 100 96 95 94 95 97 96 94
94 94 94 96 96 96 95 92 95 95 96 98 98 97 96 95 95 95 95 96 96 96
93 94 94 96 98 98 97 97 98 98 97 97 97 96 95 94 93 96 96 96 96 97
91 98 97 98 98 97 97 97 97 96 96 97 98 94 92 90 92 94 96 95 93 94
97 97 98 97 97 96 95 97 95 97 96 94 96 92 90 87 88 93 94 94 97 94
97 97 95 95 95 95 96 96 97 97 97 94 93 94 89 85 86 89 91 91 93 93

GFSNIL_sfc_rhum_114.txt.gz
RH
95 97 97 95 95 95 94 95 94 93 91 86 80 86 86 87 87 89 92 92 93 93
92 92 94 96 96 96 92 93 97 93 94 91 88 90 86 89 92 90 93 95 97 95
92 93 94 96 96 97 94 93 92 97 96 96 92 89 90 91 91 91 96 96 96 97
94 95 95 96 96 97 98 97 96 95 96 97 94 92 93 93 92 92 94 95 95 95
95 95 96 97 96 98 99 97 96 97 96 97 95 95 94 96 95 95 97 98 98 97
96 96 96 96 96 97 97 98 98 98 98 98 97 96 95 95 96 96 96 97 97 97
96 95 95 94 96 96 95 96 96 95 96 97 97 96 96 96 97 98 97 96 96 95
96 96 97 97 97 96 95 94 93 95 97 97 97 99 98 96 95 96 96 95 94 95
96 98 98 98 98 97 96 96 95 98 98 99 100 100 100 96 96 95 95 97 95 92
94 95 98 98 98 98 99 97 98 97 97 99 99 99 98 96 95 96 96 95 95 94
93 93 96 98 98 98 98 98 98 98 98 98 98 97 96 95 95 96 96 96 95 96
94 97 98 98 98 98 98 98 98 97 98 97 98 96 95 93 94 96 97 95 95 94
97 98 98 98 98 98 96 97 96 97 96 96 97 93 92 90 91 96 95 94 96 92
98 98 97 97 96 97 97 97 97 97 96 94 93 94 90 87 86 88 89 90 92 93

GFSNIL_sfc_rhum_117.txt.gz
RH
81 80 81 85 90 89 96 95 91 92 90 91 86 77 77 76 76 75 79 76 73 71
81 84 86 89 91 92 92 90 97 92 91 89 89 86 77 78 78 78 83 83 84 82
78 77 82 82 83 84 89 92 96 94 96 92 88 85 83 81 80 82 86 87 85 90
83 84 88 88 86 79 82 82 84 90 97 97 94 88 88 85 84 81 88 89 89 92
82 86 89 90 85 86 94 92 92 93 94 94 97 92 92 92 87 84 91 92 92 94
82 90 91 86 91 90 93 96 97 97 98 99 95 95 93 91 91 91 91 89 90 89
83 91 91 91 92 92 92 98 97 96 97 99 98 96 95 94 94 95 95 94 93 93
85 91 92 94 92 95 93 93 94 96 98 98 99 98 98 98 98 98 98 98 96 98
91 92 93 95 96 96 96 94 96 98 99 99 99 100 100 98 97 96 96 97 96 95
91 94 95 94 95 97 98 96 98 98 98 98 99 99 98 98 96 96 96 96 95 94
88 93 94 97 98 98 98 98 98 98 98 97 98 97 97 95 94 96 96 95 94 95
83 94 98 98 98 98 97 97 97 97 97 97 98 96 95 93 94 95 97 94 93 93
86 96 97 97 97 97 95 97 97 97 96 96 97 95 94 90 92 95 96 95 95 90
96 97 96 97 95 95 96 95 97 97 96 95 94 96 91 88 86 89 89 90 93 92

GFSNIL_sfc_rhum_120.txt.gz
RH
68 67 74 72 70 81 90 92 90 93 90 95 94 92 86 78 66 66 66 66 59 49
78 66 65 69 72 76 83 89 90 90 92 92 94 93 86 78 73 70 71 71 68 54
73 63 65 70 73 78 86 90 96 95 93 91 89 90 89 81 74 73 73 66 69 64
74 67 69 78 77 78 84 89 95 96 96 95 91 87 87 91 83 72 70 69 68 71
75 64 68 69 68 70 70 70 74 83 92 98 94 92 88 86 79 72 69 72 75 76
79 66 70 66 70 81 83 82 88 89 92 92 95 97 94 85 83 82 77 76 76 81
76 66 65 66 78 84 84 84 93 92 92 96 97 98 94 93 90 89 88 88 87 90
71 72 68 73 81 81 83 88 88 88 92 98 99 99 96 95 96 97 98 98 98 99
71 73 71 75 83 88 90 91 93 93 96 97 96 100 100 98 97 97 97 97 97 96
68 70 73 75 81 93 97 96 98 98 97 97 97 98 98 96 95 96 96 97 96 95
71 72 70 80 91 97 96 97 97 98 97 97 96 96 95 94 94 96 95 96 97 96
77 79 84 95 96 96 97 97 96 96 97 96 97 94 93 91 94 95 97 95 96 95
81 90 96 96 97 95 96 96 95 96 96 96 96 95 93 89 90 96 95 95 96 89
92 96 94 96 95 95 97 97 97 97 97 96 94 97 91 88 88 90 91 90 91 88

GFSNIL_sfc_rhum_123.txt.gz
RH
82 76 58 60 68 69 79 87 87 92 92 92 95 96 93 93 92 85 86 75 62 53
88 77 62 58 72 65 80 80 87 89 92 92 95 96 97 95 95 94 90 88 70 61
88 80 69 64 70 72 68 83 89 90 91 93 93 95 96 96 94 94 90 81 69 65
90 87 78 70 72 71 75 73 85 92 94 95 94 93 94 95 92 90 84 73 71 70
88 90 80 74 64 68 69 74 88 94 93 93 93 94 92 92 91 89 84 78 74 71
88 89 83 77 70 77 73 68 75 79 86 96 95 94 93 90 90 89 84 78 72 67
89 88 82 72 74 80 72 67 67 71 72 81 92 92 94 94 94 91 89 87 79 72
89 92 79 78 80 79 77 72 77 84 90 90 92 92 95 93 94 94 89 93 95 94
92 88 80 83 82 82 80 78 83 86 95 95 92 100 100 100 99 100 98 98 98 98
90 85 76 80 80 82 87 92 96 97 95 96 96 98 98 97 97 97 98 98 98 98
90 82 71 81 86 96 95 97 97 98 96 96 94 96 95 94 94 96 99 99 100 97
94 76 72 92 98 96 96 97 97 97 97 96 96 94 93 90 92 95 97 97 97 96
94 78 87 98 97 97 96 97 97 97 96 95 95 93 90 87 89 95 95 95 96 94
91 94 92 96 96 97 97 97 98 97 98 96 94 96 91 87 86 90 91 91 92 89

GFSNIL_sfc_rhum_126.txt.gz
RH
89 88 83 90 81 79 86 88 88 89 94 93 95 95 95 95 96 94 92 90 82 72
88 91 90 85 78 78 85 85 88 91 92 90 95 96 96 96 97 95 93 93 91 81
82 88 91 88 83 80 88 87 91 94 94 95 95 96 97 95 95 94 93 92 90 84
83 89 91 90 84 78 86 87 90 92 92 94 96 96 97 96 97 97 91 94 92 89
87 89 92 91 89 90 86 88 90 91 93 94 94 95 96 96 94 97 95 93 96 93
86 88 91 92 89 86 85 87 89 91 95 95 94 95 93 92 93 94 95 93 91 90
90 88 89 93 90 90 87 84 84 91 93 94 94 93 93 91 92 92 93 94 94 89
85 89 94 95 91 90 88 83 81 85 87 91 94 93 93 92 93 93 94 96 96 96
82 88 95 96 93 90 90 88 90 91 96 99 99 100 100 98 95 94 93 96 100 99
81 88 94 93 93 92 94 98 99 98 97 98 98 100 100 100 99 99 99 99 99 100
80 85 90 95 94 98 98 99 99 99 98 98 97 98 97 96 96 98 99 100 100 100
82 86 90 96 98 98 98 98 99 98 97 97 98 95 94 92 94 97 98 99 100 99
83 88 92 97 98 98 98 98 98 98 97 96 97 95 93 90 92 97 97 96 97 96
84 90 94 99 98 98 98 98 98 98 98 97 95 96 91 89 90 92 93 94 95 94

GFSNIL_sfc_rhum_129.txt.gz
RH
91 96 94 92 93 88 89 88 90 91 91 94 93 92 95 95 94 94 94 90 95 88
84 91 92 94 95 91 89 91 93 94 96 97 96 95 96 98 98 97 96 93 93 90
84 90 94 96 97 93 92 89 92 95 95 97 97 97 97 97 96 96 96 97 96 91
84 87 94 96 97 95 92 91 93 93 95 95 96 95 98 96 95 98 97 95 95 93
86 86 92 95 94 95 94 92 94 94 95 94 95 96 97 97 96 98 97 95 98 93
84 84 89 93 94 96 97 94 94 94 95 94 95 97 97 95 96 97 94 92 95 95
84 84 85 88 91 95 96 95 94 94 94 93 94 94 94 95 96 94 96 91 92 90
83 82 82 86 92 94 96 95 95 95 95 94 94 94 96 95 96 96 95 96 92 92
79 80 83 87 89 95 96 96 96 97 97 97 97 100 100 98 96 96 96 98 99 95
76 79 81 79 89 95 97 96 98 99 99 99 99 100 100 100 98 98 98 98 100 100
78 80 82 84 90 93 99 99 99 99 99 99 98 99 99 99 99 99 100 100 100 100
79 82 84 88 91 92 99 99 99 99 99 98 99 98 98 97 98 98 99 100 100 100
82 86 87 89 92 95 99 98 98 99 98 98 98 96 95 94 95 98 97 98 98 98
83 88 89 92 95 99 99 98 98 98 98 98 96 97 92 91 94 95 96 96 97 96

GFSNIL_sfc_rhum_132.txt.gz
RH
91 95 94 96 98 94 93 93 93 97 97 96 97 97 96 96 95 94 95 92 90 90
91 90 94 93 97 96 92 90 94 94 96 97 97 97 97 96 96 96 95 94 93 91
88 88 89 93 95 98 96 95 95 96 95 96 97 96 96 95 94 95 96 96 94 92
91 89 92 94 96 96 96 97 96 96 97 98 98 98 97 97 97 98 97 97 97 96
88 89 87 87 88 94 96 97 95 94 95 96 98 98 98 98 98 98 97 95 96 96
88 87 90 86 86 88 93 94 97 96 95 95 96 96 96 94 94 95 94 95 97 96
88 86 89 85 84 88 89 93 97 96 95 94 95 94 94 96 96 94 95 96 95 94
80 81 83 84 84 82 87 90 94 97 95 94 94 95 94 94 96 97 97 98 95 94
78 79 81 83 85 82 86 88 96 98 97 97 96 100 100 99 98 98 98 98 98 97
77 80 83 81 84 88 88 91 92 98 97 98 98 100 100 100 98 98 98 98 100 100
78 80 80 83 84 88 90 94 97 99 99 99 100 100 100 100 100 99 100 100 100 100
81 82 82 87 89 89 93 94 98 99 99 99 99 99 99 99 99 100 100 100 100 100
82 84 87 90 92 91 94 98 99 99 99 99 99 98 98 98 98 98 98 99 100 99
80 85 88 90 92 95 98 99 99 99 99 99 98 99 96 96 98 98 98 98 98 99

GFSNIL_sfc_rhum_135.txt.gz
RH
91 97 97 96 98 98 98 98 97 98 98 96 95 95 96 97 96 96 96 94 94 93
90 90 94 96 97 98 97 96 96 97 97 97 98 97 97 97 98 98 96 96 94 93
91 92 94 97 98 97 97 98 97 97 98 98 97 98 98 98 97 98 98 96 95 93
92 92 91 91 92 93 97 96 98 96 97 97 98 98 98 98 97 98 96 96 96 95
90 88 90 90 88 90 93 94 96 98 97 97 96 97 97 98 97 97 97 95 96 97
86 88 89 85 88 86 88 90 92 97 98 98 98 98 97 96 97 97 96 96 97 96
85 82 83 84 86 87 86 88 86 93 96 96 97 98 98 98 98 97 97 96 96 94
82 81 82 84 84 84 87 85 85 88 95 97 97 97 97 96 96 96 96 95 95 95
78 79 82 84 86 86 89 89 89 90 89 98 97 100 100 98 96 96 97 97 98 96
77 80 82 81 83 84 87 90 92 92 92 96 97 100 100 100 95 96 96 97 99 100
78 82 82 83 85 88 86 91 94 94 97 98 98 100 100 100 99 100 100 100 100 100
82 82 81 85 89 90 92 92 94 96 98 99 99 100 100 100 99 100 100 100 100 100
80 80 84 88 90 90 91 95 98 99 98 99 99 99 100 99 99 100 100 100 100 99
79 82 83 85 88 91 94 98 99 99 99 99 99 99 99 99 99 99 99 99 99 100